Location: Montbazon
(47.2835°N, 0.6999°E)
Time: 08:03:22
(UTC+00:00)

NOSS 3-1 (C) - Pass Details

Date: 08 November 2025
Orbit: 619 x 1583 km, 63.4° (Epoch: 01 December)

Event Time Altitude Azimuth Distance (km) Brightness Sun altitude
Exits shadow 06:14:51 - 270° (W) 2,478 5.0 -6.6°
Reaches altitude 10° 06:15:40 10° 275° (W) 2,223 4.8 -6.5°
Maximum altitude 06:19:59 27° 334° (NNW) 1,520 4.2 -5.8°
Drops below altitude 10° 06:25:09 10° 31° (NNE) 2,688 6.0 -4.9°
Sets 06:28:27 0° 43° (NE) 3,819 6.9 -4.4°
